Content
SEND FEEDBACK

Daily
Averages
Monthly
Summary
United States of America

ROCK HILL, NEW YORK


Home > North America > United States > New York
Elevation: 1260 feet     Latitude: 41 35N     Longitude: 074 37W

WEATHER
 
SELECT A DAY
Number of Records: 444,047;   Date Range: 1/1/95 - 9/18/14
 
SHARE

PRINT THIS DATA

[ ← Previous Day ]
WEATHER ALMANAC - OCTOBER 24, 2013
[ Next Day → ]
[ °C ]   °F
We're sorry. There is no daily almanac available for Rock Hill, New York on October 24, 2013.
WEATHER BY HOUR - OCTOBER 24, 2013
[ °C ]   °F
Local TimeTemperatureDewpointHumidityBarometerVisibilityWind DirectionWind SpeedGust SpeedPrecipitationEventsConditions
12:35 AM35.6 °F28.4 °F75 %29.76 in10.0 miWest (280°)8.1 mphScattered Clouds
12:55 AM35.6 °F28.4 °F75 %29.76 in10.0 miWest (270°)8.1 mphClear
1:15 AM35.6 °F28.4 °F75 %29.77 in10.0 miWest (270°)5.8 mphScattered Clouds
1:35 AM33.8 °F28.4 °F81 %29.77 in10.0 miWest (280°)8.1 mphScattered Clouds
1:55 AM33.8 °F28.4 °F81 %29.77 in10.0 miWNW (290°)9.2 mphPartly Cloudy
2:15 AM33.8 °F28.4 °F81 %29.77 in10.0 miWNW (290°)8.1 mphClear
2:35 AM33.8 °F26.6 °F75 %29.77 in10.0 miWest (280°)8.1 mphClear
2:55 AM33.8 °F28.4 °F81 %29.78 in10.0 miWest (280°)9.2 mphScattered Clouds
3:15 AM33.8 °F28.4 °F81 %29.78 in10.0 miWest (280°)9.2 mphMostly Cloudy
3:35 AM33.8 °F28.4 °F81 %29.78 in10.0 miWest (270°)10.4 mphClear
3:55 AM33.8 °F26.6 °F75 %29.79 in10.0 miWest (260°)5.8 mphClear
4:15 AM33.8 °F26.6 °F75 %29.79 in10.0 miWest (270°)6.9 mphClear
4:35 AM32.0 °F26.6 °F80 %29.80 in10.0 miWest (270°)8.1 mphClear
4:55 AM33.8 °F26.6 °F75 %29.80 in10.0 miWest (270°)5.8 mphClear
5:15 AM32.0 °F26.6 °F80 %29.81 in10.0 miWest (260°)4.6 mphPartly Cloudy
5:35 AM33.8 °F26.6 °F75 %29.82 in10.0 miWSW (240°)4.6 mphMostly Cloudy
5:55 AM32.0 °F26.6 °F80 %29.83 in10.0 miWSW (250°)5.8 mphScattered Clouds
6:15 AM32.0 °F26.6 °F80 %29.83 in10.0 miWest (260°)4.6 mphMostly Cloudy
6:35 AM30.2 °F26.6 °F86 %29.84 in10.0 miWSW (240°)4.6 mphPartly Cloudy
6:55 AM30.2 °F26.6 °F86 %29.84 in10.0 miWSW (250°)4.6 mphClear
7:15 AM30.2 °F24.8 °F80 %29.85 in10.0 miWest (270°)4.6 mphClear
7:35 AM30.2 °F24.8 °F80 %29.85 in10.0 miWest (270°)3.5 mphClear
7:55 AM30.2 °F26.6 °F86 %29.85 in10.0 miWest (270°)3.5 mphClear
8:15 AM30.2 °F26.6 °F86 %29.86 in10.0 miWest (270°)4.6 mphClear
8:35 AM32.0 °F26.6 °F80 %29.87 in10.0 miWest (260°)5.8 mphClear
8:55 AM33.8 °F28.4 °F81 %29.88 in10.0 miWest (270°)8.1 mphClear
9:15 AM35.6 °F28.4 °F75 %29.88 in10.0 miWest (270°)11.5 mphClear
9:35 AM35.6 °F28.4 °F75 %29.88 in10.0 miWest (260°)11.5 mph18.4 mphClear
9:55 AM37.4 °F28.4 °F70 %29.88 in10.0 miWest (270°)9.2 mph19.6 mphPartly Cloudy
10:15 AM37.4 °F28.4 °F70 %29.88 in10.0 miWest (270°)11.5 mph19.6 mphMostly Cloudy
10:35 AM39.2 °F26.6 °F61 %29.88 in10.0 miWest (270°)15.0 mph21.9 mphPartly Cloudy
10:55 AM39.2 °F28.4 °F65 %29.87 in10.0 miWest (260°)12.7 mphScattered Clouds
11:15 AM41.0 °F26.6 °F57 %29.87 in10.0 miWest (260°)12.7 mph19.6 mphScattered Clouds
11:35 AM42.8 °F28.4 °F57 %29.87 in10.0 miWSW (250°)16.1 mph21.9 mphMostly Cloudy
11:55 AM42.8 °F24.8 °F49 %29.86 in10.0 miWest (270°)15.0 mph23.0 mphScattered Clouds
12:15 PM44.6 °F26.6 °F49 %29.86 in10.0 miWest (280°)16.1 mph23.0 mphMostly Cloudy
12:35 PM44.6 °F26.6 °F49 %29.86 in10.0 miNW (310°)13.8 mph23.0 mphOvercast
12:55 PM46.4 °F26.6 °F46 %29.85 in10.0 miWNW (290°)13.8 mph24.2 mphOvercast
1:15 PM44.6 °F24.8 °F46 %29.85 in10.0 miWest (260°)15.0 mph21.9 mphMostly Cloudy
1:35 PM44.6 °F24.8 °F46 %29.84 in10.0 miWSW (250°)15.0 mph24.2 mphMostly Cloudy
1:55 PM46.4 °F24.8 °F43 %29.84 in10.0 miWest (270°)12.7 mph20.7 mphMostly Cloudy
2:15 PM46.4 °F24.8 °F43 %29.84 in10.0 miWest (260°)18.4 mph26.5 mphOvercast
2:35 PM44.6 °F24.8 °F46 %29.84 in10.0 miWest (260°)13.8 mph27.6 mphOvercast
2:55 PM42.8 °F23.0 °F46 %29.84 in10.0 miWSW (250°)10.4 mph18.4 mphScattered Clouds
3:15 PM46.4 °F23.0 °F40 %29.84 in10.0 miWNW (300°)21.9 mph29.9 mphScattered Clouds
3:35 PM46.4 °F24.8 °F43 %29.85 in10.0 miWest (270°)15.0 mph25.3 mphMostly Cloudy
3:55 PM44.6 °F23.0 °F43 %29.86 in10.0 miWNW (300°)13.8 mph19.6 mphOvercast
4:15 PM44.6 °F24.8 °F46 %29.86 in10.0 miWest (280°)8.1 mph19.6 mphMostly Cloudy
4:35 PM44.6 °F24.8 °F46 %29.86 in10.0 miWest (270°)11.5 mph19.6 mphMostly Cloudy
4:55 PM44.6 °F23.0 °F43 %29.87 in10.0 miWest (270°)13.8 mph24.2 mphOvercast
5:15 PM44.6 °F24.8 °F46 %29.87 in10.0 miWest (260°)11.5 mph18.4 mphMostly Cloudy
5:35 PM42.8 °F23.0 °F46 %29.88 in10.0 miWest (270°)12.7 mph18.4 mphMostly Cloudy
5:55 PM42.8 °F21.2 °F42 %29.89 in10.0 miWNW (290°)9.2 mph18.4 mphScattered Clouds
6:15 PM41.0 °F21.2 °F45 %29.90 in10.0 miWest (270°)8.1 mphScattered Clouds
6:35 PM41.0 °F21.2 °F45 %29.90 in10.0 miWest (280°)9.2 mphOvercast
6:55 PM39.2 °F21.2 °F49 %29.90 in10.0 miWest (270°)10.4 mphScattered Clouds
7:15 PM39.2 °F21.2 °F49 %29.91 in10.0 miWest (270°)11.5 mphClear
7:35 PM39.2 °F21.2 °F49 %29.92 in10.0 miWest (270°)12.7 mphClear
7:55 PM39.2 °F21.2 °F49 %29.92 in10.0 miWest (270°)10.4 mph16.1 mphClear
8:15 PM39.2 °F21.2 °F49 %29.93 in10.0 miWest (270°)12.7 mph18.4 mphClear
8:35 PM37.4 °F21.2 °F52 %29.93 in10.0 miWest (270°)9.2 mph16.1 mphClear
8:55 PM37.4 °F21.2 °F52 %29.93 in10.0 miWest (270°)10.4 mphClear
9:15 PM37.4 °F21.2 °F52 %29.94 in10.0 miWest (270°)11.5 mph16.1 mphClear
9:35 PM37.4 °F21.2 °F52 %29.95 in10.0 miWest (270°)8.1 mph17.3 mphClear
9:55 PM37.4 °F21.2 °F52 %29.95 in10.0 miWest (270°)8.1 mphClear
10:15 PM35.6 °F21.2 °F56 %29.95 in10.0 miWest (270°)11.5 mphClear
10:35 PM35.6 °F21.2 °F56 %29.95 in10.0 miWest (280°)12.7 mph17.3 mphClear
10:55 PM35.6 °F21.2 °F56 %29.95 in10.0 miWest (280°)11.5 mph16.1 mphClear
11:15 PM35.6 °F21.2 °F56 %29.95 in10.0 miWest (270°)10.4 mph18.4 mphClear
11:35 PM35.6 °F21.2 °F56 %29.95 in10.0 miWest (270°)10.4 mphScattered Clouds
11:55 PM35.6 °F23.0 °F60 %29.96 in10.0 miWest (280°)12.7 mph16.1 mphMostly Cloudy
Hourly data recorded from KMSV, located miles away from Rock Hill, New York







STORIES FROM OUR PARTNERS